Regional Weather Roundup
Issued by NWS

Home | Current Version | Previous Version | Text Only | Print | Product List | Glossary On
Versions: 1 2 3 4 5 6 7 8 9 10 11 12 13 14 15 16 17 18 19 20 21 22 23 24 25 26 27 28 29 30 31 32 33 34 35 36 37 38 39 40 41 42 43 44 45 46 47 48 49 50
000
ASUS43 KTOP 090608
RWRKS

WEATHER ROUNDUP FOR KANSAS
NATIONAL WEATHER SERVICE GOODLAND KS
1200 AM CST TUE FEB 09 2016

NOTE:  "FAIR" INDICATES FEW OR NO CLOUDS BELOW 12,000 FEET WITH NO
SIGNIFICANT WEATHER AND/OR OBSTRUCTIONS TO VISIBILITY.

KSZ001>006-013>018-027>032-041>047-090700-
NORTHWEST KANSAS

CITY           SKY/WX    TMP DP  RH WIND       PRES   REMARKS
GOODLAND       CLOUDY    25  21  85 NW6       30.24F
6HR MIN TEMP:  23; 6HR MAX TEMP:  35;

HAYS           MOCLDY    30  16  55 W9        30.23S
HILL CITY      CLOUDY    32  23  69 W7        30.24S
6HR MIN TEMP:  28; 6HR MAX TEMP:  35;

RUSSELL        PTCLDY    30  21  69 NW9       30.22S
6HR MIN TEMP:  26; 6HR MAX TEMP:  35;

$$

KSZ061>065-074>080-084>089-090700-
SOUTHWEST KANSAS

CITY           SKY/WX    TMP DP  RH WIND       PRES   REMARKS
DODGE CITY     CLEAR     30  19  63 NW13      30.25F WCI  20
6HR MIN TEMP:  29; 6HR MAX TEMP:  37;

ELKHART          N/A     36  19  50 W12         N/A  WCI  28
GARDEN CITY    CLEAR     26  19  74 NW9       30.27S
6HR MIN TEMP:  25; 6HR MAX TEMP:  37;

GREAT BEND     CLEAR     32  18  55 NW13      30.23S WCI  22
LIBERAL        CLEAR     27  16  63 W9        30.29F
PRATT          CLEAR     28  16  59 NW12      30.23R WCI  18
6HR MIN TEMP:  28; 6HR MAX TEMP:  36;

$$

KSZ066>073-081>083-090>101-090700-
SOUTHEAST KANSAS

CITY           SKY/WX    TMP DP  RH WIND       PRES   REMARKS
CHANUTE        PTCLDY    31  18  58 W9        30.13F
6HR MIN TEMP:  31; 6HR MAX TEMP:  37;

COFFEYVILLE    PTCLDY    31  17  56 W8        30.17S
6HR MIN TEMP:  30; 6HR MAX TEMP:  40;

HUTCHINSON     CLEAR     32  17  54 NW9       30.20S
6HR MIN TEMP:  31; 6HR MAX TEMP:  38;

MEDICINE LODGE   N/A     30  16  56 NW7       30.23F
NEWTON         CLEAR     30  16  55 NW15      30.18F WCI  19
PARSONS        PTCLDY    31  18  58 NW7       30.16S
6HR MIN TEMP:  31; 6HR MAX TEMP:  38;

WICHITA INTL   PTCLDY    32  19  58 NW13      30.20R WCI  22
6HR MIN TEMP:  32; 6HR MAX TEMP:  41;

WICHITA JABRA  CLEAR     33  18  53 NW20      30.18S WCI  21
6HR MIN TEMP:  30; 6HR MAX TEMP:  38;

WICHITA MCCONL CLEAR     33  18  53 NW13      30.19R WCI  24
WINFIELD       CLEAR     30  19  63 NW12      30.21S WCI  20
6HR MIN TEMP:  29; 6HR MAX TEMP:  40;

$$

KSZ007>012-019>026-033>040-048>060-102>105-090700-
NORTHEAST KANSAS

CITY           SKY/WX    TMP DP  RH WIND       PRES   REMARKS
CONCORDIA      CLEAR     26  18  71 W8        30.17S
6HR MIN TEMP:  26; 6HR MAX TEMP:  36;

EMPORIA        CLEAR     31  18  58 NW13      30.13S WCI  21
6HR MIN TEMP:  29; 6HR MAX TEMP:  35;

LAWRENCE       CLOUDY    31  20  63 NW7       30.09F
6HR MIN TEMP:  27; 6HR MAX TEMP:  32;

MANHATTAN      PTCLDY    31  20  63 W7        30.16S
6HR MIN TEMP:  31; 6HR MAX TEMP:  37;

MARYSVILLE     CLOUDY    32  21  64 NW13      30.12S WCI  22
OLATHE IND     CLOUDY    29  18  63 NW13      30.08S WCI  19
6HR MIN TEMP:  26; 6HR MAX TEMP:  31;

OLATHE EXE     PTCLDY    28  18  66 NW12      30.06F WCI  18
6HR MIN TEMP:  27; 6HR MAX TEMP:  31;

SALINA         CLEAR     31  19  61 W13       30.19F WCI  21
6HR MIN TEMP:  31; 6HR MAX TEMP:  39;

TOPEKA BILLARD MOCLDY    32  20  61 NW13      30.10F WCI  22
6HR MIN TEMP:  31; 6HR MAX TEMP:  34;

TOPEKA FORBES  MOCLDY    33  20  58 NW18G26   30.09S WCI  22
6HR MIN TEMP:  30; 6HR MAX TEMP:  35;

$$



USA.gov is the U.S. government's official web portal to all federal, state and local government web resources and services.